Hyannis, MA

6:38 AM EDT on March 28, 2017 (GMT -0400)
Barnstable Municipal-Boardman-Polando Field

Weather History for KHYA - June, 2013

Change the Weather History Date:

Wednesday, June 12, 2013

  Actual Average Record
Temperature  
Mean Temperature 62 °F -  
Max Temperature 71 °F 72 °F 88 °F (1984)
Min Temperature 55 °F 54 °F 37 °F (1966)
Degree Days  
Heating Degree Days 2    
Growing Degree Days 12 (Base 50)    
Moisture  
Dew Point 54 °F    
Average Humidity 79    
Maximum Humidity 100    
Minimum Humidity 53    
Precipitation  
Precipitation 0.00 in - - ()
Sea Level Pressure  
Sea Level Pressure 29.63 in    
Wind  
Wind Speed 6 mph (NW)    
Max Wind Speed 15 mph    
Max Gust Speed 25 mph    
Visibility 8 miles    
Events Fog    
Averages and records for this station are not official NWS values.
T = Trace of Precipitation, MM = Missing Value Source: NWS Daily Summary

Daily Weather History Graph

Daily Weather History Graph

Search for Another Location

Airport or City:

Trip Planner

Search our weather history database for the weather conditions in past years. The results will help you decide how hot, cold, wet, or windy it might be!

Date:

Astronomy

Jun. 12, 2013 Rise Set
Actual Time 5:06 AM EDT 8:16 PM EDT
Civil Twilight 4:32 AM EDT 8:50 PM EDT
Nautical Twilight 3:48 AM EDT 9:33 PM EDT
Astronomical Twilight 2:56 AM EDT 10:26 PM EDT
Moon 8:44 AM EDT (6/12) 10:47 PM EDT (6/12)
Length of Visible Light 16h 18m
Length of Day
15h 09m
Waxing Crescent, 14% of the Moon is Illuminated
Jun 12
Waxing Crescent
Jun 16
First Quarter
Jun 23
Full
Jun 30
Last Quarter
Jul 8
New

Hourly Weather History & Observations

Time (EDT) Temp. Dew Point Humidity Pressure Visibility Wind Dir Wind Speed Gust Speed Precip Events Conditions
12:52 AM 55.4 °F 53.6 °F 94% 29.58 in 10.0 mi West 4.6 mph - N/A   Overcast
12:56 AM 55.0 °F 54.0 °F 96% 29.59 in 10.0 mi WNW 4.6 mph - N/A   Overcast
1:40 AM 55.4 °F 53.6 °F 94% 29.57 in 2.5 mi Calm Calm - N/A   Overcast
1:56 AM 55.0 °F 54.0 °F 96% 29.57 in 3.0 mi Calm Calm - N/A   Overcast
2:26 AM 55.4 °F 55.4 °F 100% 29.56 in 1.8 mi SSW 3.5 mph - N/A   Overcast
2:42 AM 55.4 °F 55.4 °F 100% 29.56 in 0.5 mi SW 3.5 mph - N/A Fog Fog
2:56 AM 55.9 °F 55.0 °F 97% 29.56 in 1.2 mi Calm Calm - N/A   Overcast
3:07 AM 55.4 °F 55.4 °F 100% 29.56 in 3.0 mi Calm Calm - N/A   Mostly Cloudy
3:21 AM 55.4 °F 55.4 °F 100% 29.56 in 10.0 mi Calm Calm - N/A   Mostly Cloudy
3:56 AM 57.9 °F 55.9 °F 93% 29.56 in 10.0 mi West 8.1 mph - N/A   Overcast
4:56 AM 61.0 °F 55.9 °F 83% 29.56 in 10.0 mi West 8.1 mph - N/A   Overcast
5:56 AM 61.0 °F 55.0 °F 81% 29.57 in 10.0 mi WNW 11.5 mph 23.0 mph N/A   Overcast
6:56 AM 62.1 °F 55.0 °F 78% 29.59 in 10.0 mi WNW 11.5 mph - 0.00 in   Overcast
7:56 AM 62.1 °F 55.0 °F 78% 29.59 in 10.0 mi WNW 10.4 mph 18.4 mph N/A   Mostly Cloudy
8:56 AM 64.0 °F 55.9 °F 75% 29.59 in 10.0 mi NNW 10.4 mph - N/A   Overcast
9:56 AM 66.0 °F 55.9 °F 70% 29.60 in 10.0 mi WNW 9.2 mph 18.4 mph N/A   Overcast
10:56 AM 66.9 °F 54.0 °F 63% 29.60 in 10.0 mi WNW 13.8 mph 19.6 mph N/A   Overcast
11:56 AM 68.0 °F 53.1 °F 59% 29.61 in 10.0 mi NNW 15.0 mph 23.0 mph 0.00 in   Mostly Cloudy
12:56 PM 68.0 °F 53.1 °F 59% 29.61 in 10.0 mi WNW 12.7 mph 19.6 mph N/A   Overcast
1:56 PM 70.0 °F 52.0 °F 53% 29.61 in 10.0 mi NW 11.5 mph 25.3 mph N/A   Mostly Cloudy
2:56 PM 69.1 °F 52.0 °F 54% 29.63 in 10.0 mi NW 15.0 mph 20.7 mph N/A   Overcast
3:56 PM 68.0 °F 53.1 °F 59% 29.65 in 10.0 mi NNW 12.7 mph - N/A   Overcast
4:56 PM 64.0 °F 55.9 °F 75% 29.67 in 10.0 mi North 10.4 mph 20.7 mph N/A   Overcast
5:56 PM 63.0 °F 54.0 °F 72% 29.69 in 10.0 mi NW 10.4 mph - N/A   Overcast
6:56 PM 62.1 °F 55.0 °F 78% 29.72 in 10.0 mi NNW 9.2 mph - N/A   Overcast
7:56 PM 62.1 °F 55.0 °F 78% 29.74 in 10.0 mi NNW 9.2 mph - N/A   Overcast
8:56 PM 62.1 °F 54.0 °F 75% 29.75 in 10.0 mi NW 6.9 mph - N/A   Mostly Cloudy
9:56 PM 62.1 °F 54.0 °F 75% 29.78 in 10.0 mi NW 6.9 mph - N/A   Overcast
10:56 PM 62.1 °F 54.0 °F 75% 29.78 in 10.0 mi NW 8.1 mph - 0.00 in   Overcast
11:56 PM 61.0 °F 52.0 °F 72% 29.78 in 10.0 mi North 11.5 mph - N/A   Mostly Cloudy